Macomb, IL

11:23 AM CDT on March 26, 2017 (GMT -0500)
Macomb Municipal

Weather History for KMQB - April, 2014

Change the Weather History Date:

Wednesday, April 23, 2014

  Actual Average (KBRL) Record (KBRL)
Temperature  
Mean Temperature 47 °F -  
Max Temperature 59 °F 63 °F 84 °F (1960)
Min Temperature 35 °F 46 °F 24 °F (1910)
Degree Days  
Heating Degree Days 18    
Moisture  
Dew Point 32 °F    
Average Humidity 56    
Maximum Humidity 84    
Minimum Humidity 30    
Precipitation  
Precipitation 0.01 in - - ()
Sea Level Pressure  
Sea Level Pressure 30.08 in    
Wind  
Wind Speed 9 mph (ESE)    
Max Wind Speed 21 mph    
Max Gust Speed 24 mph    
Visibility 10 miles    
Events Rain    
Averages and records for this station are not official NWS values.
T = Trace of Precipitation, MM = Missing Value Source: NWS Daily Summary

Daily Weather History Graph

Daily Weather History Graph

Search for Another Location

Airport or City:

Trip Planner

Search our weather history database for the weather conditions in past years. The results will help you decide how hot, cold, wet, or windy it might be!

Date:

Astronomy

Apr. 23, 2014 Rise Set
Actual Time 6:12 AM CDT 7:50 PM CDT
Civil Twilight 5:43 AM CDT 8:19 PM CDT
Nautical Twilight 5:08 AM CDT 8:54 PM CDT
Astronomical Twilight 4:31 AM CDT 9:31 PM CDT
Moon 2:45 AM CDT (4/23) 1:57 PM CDT (4/23)
Length of Visible Light 14h 35m
Length of Day
13h 37m
Waning Crescent, 34% of the Moon is Illuminated
Apr 23
Waning Crescent
Apr 29
New
May 6
First Quarter
May 14
Full
May 21
Last Quarter

Hourly Weather History & Observations

Time (CDT) Temp. Windchill Dew Point Humidity Pressure Visibility Wind Dir Wind Speed Gust Speed Precip Events Conditions
12:15 AM 44.1 °F 40.8 °F 31.1 °F 60% 30.08 in 10.0 mi North 5.8 mph - N/A   Clear
12:35 AM 43.3 °F 39.2 °F 30.9 °F 62% 30.08 in 10.0 mi North 6.9 mph - N/A   Clear
12:55 AM 43.0 °F 38.8 °F 30.9 °F 62% 30.08 in 10.0 mi NNE 6.9 mph - N/A   Clear
1:15 AM 40.6 °F - 30.0 °F 66% 30.08 in 10.0 mi Calm Calm - N/A   Clear
1:35 AM 41.7 °F 39.8 °F 30.2 °F 64% 30.07 in 10.0 mi NE 3.5 mph - N/A   Clear
1:55 AM 39.4 °F 36.1 °F 30.0 °F 69% 30.08 in 10.0 mi ENE 4.6 mph - N/A   Clear
2:15 AM 40.5 °F 34.6 °F 30.0 °F 66% 30.08 in 10.0 mi ENE 9.2 mph - N/A   Clear
2:35 AM 39.7 °F 33.7 °F 31.1 °F 71% 30.09 in 10.0 mi ENE 9.2 mph - N/A   Clear
2:55 AM 38.7 °F 32.9 °F 31.6 °F 76% 30.10 in 10.0 mi East 8.1 mph - N/A   Clear
3:15 AM 37.8 °F 31.8 °F 32.0 °F 80% 30.11 in 10.0 mi East 8.1 mph - N/A   Clear
3:35 AM 38.3 °F 31.4 °F 32.9 °F 81% 30.11 in 10.0 mi East 10.4 mph - N/A   Clear
3:55 AM 39.6 °F 33.0 °F 32.4 °F 75% 30.11 in 10.0 mi East 10.4 mph - N/A   Clear
4:15 AM 39.2 °F 34.2 °F 32.0 °F 75% 30.13 in 10.0 mi ESE 6.9 mph - N/A   Clear
4:35 AM 37.6 °F 31.6 °F 32.0 °F 80% 30.12 in 10.0 mi East 8.1 mph - N/A   Clear
4:55 AM 36.3 °F 30.8 °F 31.8 °F 84% 30.11 in 10.0 mi East 6.9 mph - N/A   Clear
5:15 AM 37.4 °F 32.8 °F 31.6 °F 80% 30.12 in 10.0 mi East 5.8 mph - N/A   Clear
5:35 AM 36.9 °F 30.7 °F 31.1 °F 80% 30.12 in 10.0 mi East 8.1 mph - N/A   Clear
5:55 AM 36.5 °F 31.0 °F 30.9 °F 80% 30.13 in 10.0 mi East 6.9 mph - N/A   Clear
6:15 AM 35.8 °F 30.1 °F 30.7 °F 82% 30.14 in 10.0 mi East 6.9 mph - N/A   Scattered Clouds
6:35 AM 36.7 °F 32.9 °F 31.5 °F 81% 30.17 in 10.0 mi East 4.6 mph - N/A   Mostly Cloudy
6:55 AM 38.1 °F 34.6 °F 32.0 °F 79% 30.17 in 10.0 mi East 4.6 mph - N/A   Overcast
7:15 AM 39.4 °F 34.5 °F 32.0 °F 75% 30.17 in 10.0 mi East 6.9 mph - N/A   Mostly Cloudy
7:35 AM 41.5 °F 35.0 °F 30.9 °F 66% 30.18 in 10.0 mi ESE 11.5 mph 17.3 mph N/A   Mostly Cloudy
7:55 AM 42.8 °F 37.0 °F 31.3 °F 64% 30.18 in 10.0 mi ESE 10.4 mph - N/A   Overcast
8:15 AM 43.0 °F 36.8 °F 30.4 °F 61% 30.19 in 10.0 mi SE 11.5 mph - N/A   Overcast
8:35 AM 43.3 °F 36.1 °F 30.2 °F 60% 30.19 in 10.0 mi SE 15.0 mph - N/A   Mostly Cloudy
8:55 AM 45.9 °F 39.1 °F 30.9 °F 56% 30.19 in 10.0 mi SE 16.1 mph - N/A   Scattered Clouds
9:15 AM 46.0 °F 39.3 °F 30.9 °F 56% 30.18 in 10.0 mi SE 16.1 mph - N/A   Scattered Clouds
9:35 AM 48.7 °F - 31.5 °F 51% 30.18 in 10.0 mi ESE 13.8 mph - N/A   Clear
9:55 AM 48.0 °F - 30.6 °F 51% 30.18 in 10.0 mi SE 12.7 mph - N/A   Clear
10:15 AM 48.6 °F - 30.9 °F 51% 30.18 in 10.0 mi East 12.7 mph - N/A   Clear
10:35 AM 49.1 °F - 30.7 °F 49% 30.17 in 10.0 mi SE 15.0 mph - N/A   Clear
10:55 AM 50.0 °F - 30.6 °F 47% 30.17 in 10.0 mi ESE 12.7 mph - N/A   Clear
11:15 AM 51.1 °F - 30.6 °F 45% 30.17 in 10.0 mi SE 9.2 mph - N/A   Clear
11:35 AM 53.2 °F - 28.8 °F 39% 30.17 in 10.0 mi ESE 10.4 mph 18.4 mph N/A   Clear
11:55 AM 54.1 °F - 28.9 °F 38% 30.17 in 10.0 mi SE 8.1 mph 16.1 mph N/A   Scattered Clouds
12:35 PM 57.7 °F - 29.7 °F 34% 30.13 in 10.0 mi SE 10.4 mph 17.3 mph N/A   Overcast
12:55 PM 58.1 °F - 29.5 °F 34% 30.12 in 10.0 mi ESE 12.7 mph 16.1 mph N/A   Mostly Cloudy
1:15 PM 57.2 °F - 29.7 °F 35% 30.11 in 10.0 mi SE 9.2 mph 18.4 mph N/A   Scattered Clouds
1:35 PM 58.1 °F - 29.3 °F 33% 30.10 in 10.0 mi SE 9.2 mph - N/A   Mostly Cloudy
1:55 PM 58.1 °F - 29.5 °F 34% 30.09 in 10.0 mi East 15.0 mph 19.6 mph N/A   Scattered Clouds
2:15 PM 58.8 °F - 28.9 °F 32% 30.09 in 10.0 mi ESE 10.4 mph 19.6 mph N/A   Scattered Clouds
2:35 PM 58.6 °F - 28.0 °F 31% 30.08 in 10.0 mi SSE 13.8 mph 18.4 mph N/A   Mostly Cloudy
2:55 PM 59.2 °F - 28.2 °F 31% 30.08 in 10.0 mi SE 11.5 mph - N/A   Scattered Clouds
3:15 PM 59.0 °F - 27.3 °F 30% 30.07 in 10.0 mi SE 10.4 mph - N/A   Scattered Clouds
3:35 PM 59.0 °F - 27.1 °F 30% 30.08 in 10.0 mi SE 9.2 mph - N/A   Mostly Cloudy
3:55 PM 58.1 °F - 27.1 °F 31% 30.07 in 10.0 mi ESE 9.2 mph - N/A   Overcast
4:15 PM 58.1 °F - 26.8 °F 30% 30.07 in 10.0 mi ESE 9.2 mph - N/A   Overcast
4:35 PM 55.9 °F - 32.7 °F 41% 30.07 in 10.0 mi ESE 9.2 mph - N/A Rain Light Rain
4:55 PM 53.6 °F - 39.2 °F 58% 30.05 in 10.0 mi East 11.5 mph - N/A Rain Light Rain
5:15 PM 52.9 °F - 41.0 °F 64% 30.04 in 10.0 mi ESE 6.9 mph - 0.01 in Rain Light Rain
5:35 PM 53.6 °F - 39.9 °F 60% 30.03 in 10.0 mi SE 11.5 mph - 0.01 in   Scattered Clouds
5:55 PM 53.6 °F - 37.2 °F 54% 30.03 in 10.0 mi SE 10.4 mph - 0.01 in   Scattered Clouds
6:15 PM 53.8 °F - 37.4 °F 54% 30.04 in 10.0 mi East 8.1 mph - N/A   Mostly Cloudy
6:35 PM 53.6 °F - 40.8 °F 62% 30.03 in 10.0 mi East 8.1 mph - N/A   Overcast
6:55 PM 53.2 °F - 40.8 °F 63% 30.01 in 10.0 mi East 10.4 mph - N/A   Overcast
7:15 PM 53.2 °F - 39.4 °F 59% 29.99 in 10.0 mi East 13.8 mph - N/A   Mostly Cloudy
7:35 PM 52.9 °F - 38.1 °F 57% 29.99 in 10.0 mi East 10.4 mph - N/A   Scattered Clouds
7:55 PM 52.0 °F - 38.3 °F 60% 29.98 in 10.0 mi ESE 10.4 mph - N/A   Mostly Cloudy
8:15 PM 51.1 °F - 38.3 °F 62% 29.99 in 10.0 mi East 8.1 mph - N/A   Mostly Cloudy
8:35 PM 51.8 °F - 37.4 °F 58% 29.99 in 10.0 mi East 6.9 mph - N/A   Mostly Cloudy
8:55 PM 51.8 °F - 36.9 °F 57% 29.99 in 10.0 mi ESE 10.4 mph - N/A   Overcast
9:15 PM 51.6 °F - 36.3 °F 56% 29.98 in 10.0 mi ESE 11.5 mph - N/A   Overcast
9:55 PM 52.2 °F - 34.7 °F 51% 29.97 in 10.0 mi ESE 16.1 mph 21.9 mph N/A   Scattered Clouds
10:15 PM 52.7 °F - 34.2 °F 49% 29.96 in 10.0 mi ESE 17.3 mph - N/A   Clear
10:35 PM 52.2 °F - 33.4 °F 49% 29.94 in 10.0 mi ESE 20.7 mph 24.2 mph N/A   Scattered Clouds
10:55 PM 52.3 °F - 32.9 °F 48% 29.94 in 10.0 mi ESE 18.4 mph 23.0 mph N/A   Mostly Cloudy
11:15 PM 52.3 °F - 32.7 °F 47% 29.94 in 10.0 mi SE 15.0 mph 20.7 mph N/A   Scattered Clouds
11:35 PM 52.0 °F - 32.9 °F 48% 29.95 in 10.0 mi SE 12.7 mph - N/A   Clear
11:55 PM 51.8 °F - 32.7 °F 48% 29.94 in 10.0 mi SE 13.8 mph - N/A   Clear